Wadena, MN

5:19 PM CDT on April 28, 2017 (GMT -0500)
Wadena Municipal

Weather History for KADC - October, 2013

Change the Weather History Date:

Monday, October 28, 2013

  Actual Average Record
Temperature  
Mean Temperature 28 °F -  
Max Temperature 35 °F 50 °F 74 °F (1983)
Min Temperature 21 °F 27 °F 10 °F (1976)
Degree Days  
Heating Degree Days 37    
Moisture  
Dew Point 18 °F    
Average Humidity 68    
Maximum Humidity 86    
Minimum Humidity 48    
Precipitation  
Precipitation 0.00 in - - ()
Sea Level Pressure  
Sea Level Pressure 30.41 in    
Wind  
Wind Speed 7 mph (NE)    
Max Wind Speed 13 mph    
Max Gust Speed 18 mph    
Visibility 10 miles    
Events      
Averages and records for this station are not official NWS values.
T = Trace of Precipitation, MM = Missing Value Source: NWS Daily Summary

Daily Weather History Graph

Daily Weather History Graph

Search for Another Location

Airport or City:

Trip Planner

Search our weather history database for the weather conditions in past years. The results will help you decide how hot, cold, wet, or windy it might be!

Date:

Astronomy

Oct. 28, 2013 Rise Set
Actual Time 7:56 AM CDT 6:11 PM CDT
Civil Twilight 7:25 AM CDT 6:42 PM CDT
Nautical Twilight 6:50 AM CDT 7:18 PM CDT
Astronomical Twilight 6:15 AM CDT 7:52 PM CDT
Moon 1:30 AM CDT 3:12 PM CDT
Length of Visible Light 11h 16m
Length of Day
10h 14m
Waning Crescent, 34% of the Moon is Illuminated
Oct 28
Waning Crescent
Nov 3
New
Nov 9
First Quarter
Nov 17
Full
Nov 25
Last Quarter

Hourly Weather History & Observations

Time (CDT) Temp. Windchill Dew Point Humidity Pressure Visibility Wind Dir Wind Speed Gust Speed Precip Events Conditions
12:15 AM 30.2 °F 21.9 °F 24.8 °F 80% 30.23 in 10.0 mi NE 9.2 mph - N/A   Clear
12:35 AM 30.2 °F 23.4 °F 23.0 °F 75% - 10.0 mi NE 6.9 mph - N/A   Clear
12:52 AM 28.4 °F 23.3 °F 23.0 °F 80% 30.26 in 10.0 mi NE 4.6 mph - N/A   Clear
1:15 AM 28.4 °F 20.4 °F 21.2 °F 74% 30.27 in 10.0 mi NE 8.1 mph - N/A   Clear
1:35 AM 28.4 °F 19.1 °F 21.2 °F 74% 30.28 in 10.0 mi NE 10.4 mph - N/A   Clear
1:53 AM 28.4 °F 19.7 °F 21.2 °F 74% 30.29 in 10.0 mi NNE 9.2 mph - N/A   Clear
2:15 AM 26.6 °F 18.2 °F 21.2 °F 80% 30.29 in 10.0 mi NE 8.1 mph - N/A   Clear
2:35 AM 26.6 °F 16.8 °F 21.2 °F 80% 30.30 in 10.0 mi NE 10.4 mph - N/A   Clear
2:53 AM 26.6 °F 19.1 °F 21.2 °F 80% 30.31 in 10.0 mi NNE 6.9 mph - N/A   Clear
3:15 AM 26.6 °F 17.5 °F 19.4 °F 74% 30.32 in 10.0 mi NE 9.2 mph - N/A   Clear
3:35 AM 26.6 °F 17.5 °F 19.4 °F 74% 30.33 in 10.0 mi NE 9.2 mph - N/A   Clear
3:53 AM 26.6 °F 16.8 °F 19.4 °F 74% 30.34 in 10.0 mi NE 10.4 mph 18.4 mph N/A   Clear
4:14 AM 26.6 °F 18.2 °F 19.4 °F 74% 30.35 in 10.0 mi NE 8.1 mph - N/A   Clear
4:35 AM 24.8 °F 16.1 °F 19.4 °F 80% 30.36 in 10.0 mi NE 8.1 mph 16.1 mph N/A   Clear
4:53 AM 24.8 °F 15.3 °F 19.4 °F 80% 30.37 in 10.0 mi NNE 9.2 mph - N/A   Clear
5:15 AM 24.8 °F 14.6 °F 17.6 °F 74% 30.38 in 10.0 mi NNE 10.4 mph - N/A   Clear
5:35 AM 24.8 °F 14.6 °F 17.6 °F 74% 30.38 in 10.0 mi NNE 10.4 mph - N/A   Clear
5:53 AM 23.0 °F 13.9 °F 17.6 °F 80% 30.39 in 10.0 mi NNE 8.1 mph - N/A   Clear
6:15 AM 23.0 °F 13.9 °F 17.6 °F 80% 30.40 in 10.0 mi NNE 8.1 mph - N/A   Clear
6:34 AM 23.0 °F 14.7 °F 17.6 °F 80% 30.41 in 10.0 mi NE 6.9 mph - N/A   Clear
6:52 AM 21.2 °F 12.6 °F 17.6 °F 86% 30.41 in 10.0 mi NNE 6.9 mph - N/A   Clear
7:14 AM 21.2 °F 11.7 °F 17.6 °F 86% 30.42 in 10.0 mi NNE 8.1 mph - N/A   Clear
7:35 AM 21.2 °F 11.7 °F 17.6 °F 86% 30.42 in 10.0 mi NE 8.1 mph - N/A   Clear
7:53 AM 21.2 °F 12.6 °F 15.8 °F 80% 30.43 in 10.0 mi NE 6.9 mph - N/A   Clear
8:15 AM 21.2 °F 11.7 °F 17.6 °F 86% 30.44 in 10.0 mi NNE 8.1 mph - N/A   Clear
8:35 AM 21.2 °F 12.6 °F 17.6 °F 86% 30.45 in 10.0 mi NNE 6.9 mph - N/A   Clear
8:53 AM 23.0 °F 13.9 °F 17.6 °F 80% 30.46 in 10.0 mi NE 8.1 mph - N/A   Clear
9:15 AM 24.8 °F 15.3 °F 17.6 °F 74% 30.46 in 10.0 mi ENE 9.2 mph - N/A   Clear
9:35 AM 24.8 °F 16.9 °F 17.6 °F 74% 30.47 in 10.0 mi NE 6.9 mph 10.4 mph N/A   Clear
9:52 AM 26.6 °F 16.8 °F 17.6 °F 69% 30.47 in 10.0 mi ENE 10.4 mph - N/A   Clear
10:14 AM 26.6 °F 17.5 °F 17.6 °F 69% 30.47 in 10.0 mi ENE 9.2 mph - N/A   Clear
10:34 AM 28.4 °F 18.5 °F 17.6 °F 64% 30.47 in 10.0 mi East 11.5 mph - N/A   Clear
10:53 AM 28.4 °F 18.0 °F 17.6 °F 64% 30.47 in 10.0 mi ENE 12.7 mph 16.1 mph N/A   Clear
11:15 AM 30.2 °F 22.6 °F 17.6 °F 60% 30.48 in 10.0 mi East 8.1 mph - N/A   Clear
11:35 AM 30.2 °F 22.6 °F 19.4 °F 64% 30.48 in 10.0 mi East 8.1 mph - N/A   Clear
11:52 AM 32.0 °F 26.4 °F 19.4 °F 60% 30.48 in 10.0 mi East 5.8 mph - N/A   Clear
12:14 PM 33.8 °F 27.0 °F 19.4 °F 56% 30.47 in 10.0 mi ENE 8.1 mph - N/A   Clear
12:34 PM 33.8 °F 27.7 °F 19.4 °F 56% - 10.0 mi East 6.9 mph - N/A   Clear
12:53 PM 35.6 °F 29.2 °F 19.4 °F 52% 30.46 in 10.0 mi East 8.1 mph - N/A   Clear
1:15 PM 35.6 °F 31.7 °F 19.4 °F 52% 30.46 in 10.0 mi ESE 4.6 mph - N/A   Clear
1:34 PM 35.6 °F 29.2 °F 19.4 °F 52% 30.45 in 10.0 mi ESE 8.1 mph - N/A   Scattered Clouds
1:53 PM 35.6 °F 29.2 °F 17.6 °F 48% 30.45 in 10.0 mi ENE 8.1 mph - N/A   Scattered Clouds
2:15 PM 35.6 °F 28.6 °F 17.6 °F 48% 30.44 in 10.0 mi East 9.2 mph - N/A   Scattered Clouds
2:35 PM 35.6 °F 29.9 °F 19.4 °F 52% 30.43 in 10.0 mi ENE 6.9 mph - N/A   Clear
2:53 PM 35.6 °F 29.2 °F 17.6 °F 48% 30.43 in 10.0 mi NNE 8.1 mph - N/A   Clear
3:15 PM 35.6 °F 29.9 °F 17.6 °F 48% 30.42 in 10.0 mi NE 6.9 mph - N/A   Clear
3:34 PM 35.6 °F 29.2 °F 17.6 °F 48% 30.42 in 10.0 mi ENE 8.1 mph - N/A   Clear
3:53 PM 35.6 °F 28.6 °F 19.4 °F 52% 30.42 in 10.0 mi ENE 9.2 mph - N/A   Clear
4:15 PM 35.6 °F 30.7 °F 17.6 °F 48% 30.42 in 10.0 mi East 5.8 mph - N/A   Clear
4:35 PM 35.6 °F 29.9 °F 17.6 °F 48% 30.42 in 10.0 mi ENE 6.9 mph - N/A   Clear
4:52 PM 35.6 °F 29.2 °F 17.6 °F 48% 30.42 in 10.0 mi NE 8.1 mph - N/A   Clear
5:15 PM 35.6 °F 29.2 °F 17.6 °F 48% 30.42 in 10.0 mi ENE 8.1 mph - N/A   Clear
5:35 PM 33.8 °F 30.8 °F 17.6 °F 52% 30.43 in 10.0 mi ENE 3.5 mph - N/A   Clear
5:52 PM 32.0 °F 27.5 °F 17.6 °F 55% 30.42 in 10.0 mi ENE 4.6 mph - N/A   Clear
6:14 PM 30.2 °F - 17.6 °F 60% 30.41 in 10.0 mi Calm Calm - N/A   Clear
6:35 PM 30.2 °F 26.7 °F 17.6 °F 60% 30.42 in 10.0 mi East 3.5 mph - N/A   Clear
6:53 PM 30.2 °F - 17.6 °F 60% 30.42 in 10.0 mi Calm Calm - N/A   Clear
7:15 PM 26.6 °F - 17.6 °F 69% 30.42 in 10.0 mi Calm Calm - N/A   Clear
7:34 PM 26.6 °F - 17.6 °F 69% 30.42 in 10.0 mi Calm Calm - N/A   Clear
7:53 PM 26.6 °F - 17.6 °F 69% 30.42 in 10.0 mi Calm Calm - N/A   Clear
8:15 PM 26.6 °F 21.2 °F 17.6 °F 69% 30.43 in 10.0 mi NNE 4.6 mph - N/A   Clear
8:35 PM 26.6 °F 22.6 °F 17.6 °F 69% 30.42 in 10.0 mi NE 3.5 mph - N/A   Clear
8:53 PM 26.6 °F 19.1 °F 17.6 °F 69% 30.41 in 10.0 mi NE 6.9 mph - N/A   Clear
9:14 PM 26.6 °F 19.1 °F 17.6 °F 69% 30.41 in 10.0 mi ENE 6.9 mph - N/A   Clear
9:35 PM 26.6 °F 20.0 °F 17.6 °F 69% 30.41 in 10.0 mi ENE 5.8 mph - N/A   Clear
9:52 PM 26.6 °F 21.2 °F 17.6 °F 69% 30.42 in 10.0 mi ENE 4.6 mph - N/A   Clear
10:15 PM 26.6 °F 22.6 °F 17.6 °F 69% 30.42 in 10.0 mi NE 3.5 mph - N/A   Clear
10:35 PM 24.8 °F 20.5 °F 17.6 °F 74% 30.42 in 10.0 mi NE 3.5 mph - N/A   Clear
10:53 PM 24.8 °F - 17.6 °F 74% 30.42 in 10.0 mi Calm Calm - N/A   Clear
11:15 PM 24.8 °F - 17.6 °F 74% 30.42 in 10.0 mi Calm Calm - N/A   Clear
11:34 PM 24.8 °F - 17.6 °F 74% 30.42 in 10.0 mi Calm Calm - N/A   Clear
11:53 PM 23.0 °F - 17.6 °F 80% 30.42 in 10.0 mi Calm Calm - N/A   Clear